This demonstration page uses our WeatherBlox Daily Observations layout. Learn more.

41.55636, -103.73856

Hourly Observations for February 10, 2019

Temp ( °F °C ) Dew Point ( °F °C ) Humidity (%) Winds ( mph kmh ) Pressure ( in mb ) Visibility ( mi km ) Precip ( " mm )
12:58 am 00:58 Cloudy with Mist and Fog 12 -11 10 -12.3 90 90 E 12 19 30.17 1022 5 8.0467 N/A
1:58 am 01:58 Cloudy with Light Snow 9 -13 6 -14.7 87 87 ENE 10 17 30.19 1022 6 9.65604 N/A
2:58 am 02:58 Cloudy with Light Snow 7 -14.1 3 -16 86 86 NE 5 7 30.19 1022 4 6.43736 N/A
3:58 am 03:58 Cloudy with Light Snow 4 -15.3 1 -17.2 86 86 Calm 30.16 1021 8 12.87472 N/A
4:58 am 04:58 Cloudy with Light Snow 4 -15.8 0 -17.8 85 85 ENE 7 11 30.13 1020 7 11.26538 N/A
5:58 am 05:58 Cloudy with Light Snow 3 -16 0 -17.9 85 85 Calm 30.13 1020 6 9.65604 N/A
6:58 am 06:58 Mostly Cloudy with Scattered Snow Showers 3 -16.2 -1 -18.2 85 85 N 9 15 30.15 1021 6 9.65604 N/A
7:58 am 07:58 Cloudy with Light Snow Showers 3 -16.2 -1 -18.3 84 84 Calm 30.14 1021 8 12.87472 N/A
8:58 am 08:58 Mostly Cloudy with Light Snow Showers 3 -16.1 0 -18 85 85 Calm 30.14 1021 2.75 4.425685 N/A
9:58 am 09:58 Cloudy with Light Snow Showers 3 -16.1 -1 -18.2 84 84 Calm 30.13 1020 2 3.21868 N/A
10:58 am 10:58 Mostly Cloudy with Freezing Fog 4 -15.7 0 -17.7 85 85 Calm 30.14 1021 3 4.82802 N/A
11:58 am 11:58 Mostly Cloudy with Freezing Fog 4 -15.3 1 -17.2 86 86 Calm 30.15 1021 3 4.82802 N/A
12:58 pm 12:58 Cloudy with Light Snow Showers 6 -14.2 4 -15.8 88 88 Calm 30.17 1022 0.5 0.80467 N/A
1:58 pm 13:58 Mostly Cloudy with Light Snow Showers 9 -13 6 -14.7 87 87 Calm 30.18 1022 3 4.82802 N/A
2:58 pm 14:58 Mostly Cloudy with Freezing Fog 10 -12.2 7 -13.8 88 88 Calm 30.19 1022 1 1.60934 N/A
3:58 pm 15:58 Mostly Cloudy with Light Snow Showers 12 -11.2 10 -12.5 90 90 Calm 30.19 1022 0.25 0.402335 N/A
4:58 pm 16:58 Mostly Cloudy with Light Snow Showers 13 -10.3 11 -11.6 90 90 S 7 11 30.18 1022 1 1.60934 N/A
5:58 pm 17:58 Mostly Cloudy with Mist and Fog 18 -7.7 16 -8.8 92 92 S 13 20 30.16 1021 5 8.0467 N/A
6:58 pm 18:58 Sunny 22 -5.3 21 -6.3 93 93 SSE 9 15 30.1 1019 10 16.0934 N/A
7:58 pm 19:58 Sunny 25 -4.1 23 -4.9 94 94 S 13 20 30.06 1018 10 16.0934 N/A
8:58 pm 20:58 Sunny 27 -2.8 26 -3.6 94 94 S 17 28 30.02 1017 10 16.0934 N/A
9:58 pm 21:58 Sunny 33 0.6 23 -5.1 66 66 S 17 28 29.99 1016 10 16.0934 N/A
10:58 pm 22:58 Sunny 31 -0.7 21 -5.9 68 68 S 16 26 29.97 1015 10 16.0934 N/A

Powered by AerisWeather